[[{"header":{"parameterUnit":"m.s-1","parameterCategory":1,"la1":30.2991,"la2":30.254,"lo1":-89.0895,"lo2":-89.0444,"dy":0.0017,"dx":0.0017,"nx":28,"ny":28,"refTime":"2023-10-28T09:00:00:Z","depth":0,"parameterNumber":2,"parameterNumberName":"U-component_of_WINDS"},"data":[0,0,0,0,0,0,0,0,0,0,0,0,0,0,0,0,0,0,0,0,0,0,0,0,0,0,0,0,0,0,0,0,0,0,0,0,0,0,0,0,0,0,0,0,0,0,0,0,0,0,0,0,0,0,0,0,0,0,-3.1387,-3.1387,0,-3.1386,-3.1386,-3.1385,-3.1305,-3.1303,-3.13,-3.1298,-3.1295,-3.1297,-3.1298,0,0,0,0,0,0,0,0,0,0,0,0,0,-3.1321,-3.1323,-3.1387,-3.1387,-3.1387,-3.1386,-3.1386,-3.1385,-3.1305,-3.1302,-3.13,-3.1297,-3.1294,-3.1296,-3.1299,0,0,0,0,0,0,0,0,0,0,0,0,0,-3.1338,-3.1323,-3.1387,-3.1347,-3.1343,-3.1386,-3.1386,-3.1385,-3.1306,-3.1302,-3.1299,-3.1296,-3.1293,-3.1296,-3.1299,-3.1379,0,0,-3.1307,-3.1309,0,0,0,0,0,0,0,0,-3.1337,-3.134,-3.1353,-3.135,-3.1346,-3.1342,-3.1361,-3.1383,-3.1306,-3.132,-3.1298,-3.1295,-3.1313,-3.1314,-3.132,-3.1379,-3.1379,-3.1308,-3.1309,-3.1311,-3.1311,0,0,0,0,0,0,0,-3.1336,-3.134,-3.1386,-3.1353,-3.1349,-3.1329,-3.1328,-3.1365,-3.1334,-3.1318,-3.1312,-3.1314,-3.131,-3.1318,-3.132,-3.1379,-3.1308,-3.131,-3.1312,-3.1313,-3.1505,-3.1509,0,0,0,0,0,0,-3.134,-3.1339,-3.1386,-3.1386,-3.1334,-3.1333,-3.1331,-3.1346,-3.1333,-3.1328,-3.1316,-3.131,-3.1315,-3.1317,-3.1319,-3.1413,-3.131,-3.1313,-3.1315,-3.1502,-3.1506,-3.151,0,0,0,0,0,0,-3.1339,-3.1345,-3.1386,-3.1361,-3.1365,-3.1337,-3.1355,-3.1348,-3.1355,-3.1332,-3.1326,-3.133,-3.1312,-3.1315,-3.1365,-3.1412,-3.1314,-3.1317,-3.1498,-3.1503,-3.1508,-3.1601,0,0,0,0,0,0,-3.1338,-3.1345,-3.1375,-3.1363,-3.1367,-3.1433,-3.1357,-3.135,-3.1361,-3.1352,-3.1343,-3.1338,-3.131,-3.1362,-3.1368,-3.1414,-3.1319,-3.1493,-3.15,-3.1506,-3.1593,-3.1608,-3.1621,0,0,0,0,0,-3.1336,-3.14,-3.1377,-3.1383,-3.1403,-3.1435,-3.1438,-3.1405,-3.1365,-3.1395,-3.138,-3.1338,-3.1407,-3.1368,-3.1374,-3.1421,-3.149,-3.1498,-3.1506,-3.1587,-3.1606,-3.1621,0,0,0,0,0,0,-3.1416,-3.1397,-3.1371,-3.1434,-3.1437,-3.1422,-3.1458,-3.1425,-3.1439,-3.143,-3.1388,-3.1387,-3.1444,-3.1438,-3.1395,-3.15,-3.1441,-3.1451,-3.1501,-3.1518,-3.1532,-3.1531,-3.1321,0,0,0,0,0,-3.1442,-3.147,-3.1452,-3.1509,-3.1512,-3.1485,-3.1498,-3.1473,-3.1474,-3.1475,-3.1463,-3.1466,-3.1488,-3.1503,-3.1522,-3.1593,-3.159,-3.1629,-3.1643,-3.1655,-3.1663,-3.1702,-3.1719,-3.1535,-3.1535,-3.1535,0,0,-3.1493,-3.1487,-3.1507,-3.1525,-3.1524,-3.1554,-3.1486,-3.152,-3.1542,-3.1479,-3.1526,-3.1519,-3.1519,-3.1581,-3.1607,-3.1577,-3.1714,-3.1665,-3.1674,-3.1676,-3.1711,-3.1729,-3.1744,-3.1541,-3.154,-3.1539,0,0,-3.1603,-3.1601,-3.1649,-3.1651,-3.1652,-3.1635,-3.1647,-3.1638,-3.1631,-3.1678,-3.1632,-3.1658,-3.1696,-3.1699,-3.1705,-3.1822,-3.1784,-3.183,-3.1902,-3.194,-3.1955,-3.1967,-3.2009,-3.2024,-3.1838,-3.1839,-3.1839,0,-3.1667,-3.171,-3.1678,-3.1716,-3.1726,-3.1673,-3.1722,-3.1725,-3.1732,-3.1741,-3.1708,-3.1757,-3.1753,-3.1816,-3.1845,-3.1852,-3.1864,-3.1829,-3.1955,-3.1968,-3.1979,-3.2018,-3.2034,-3.1844,-3.1843,-3.1843,-3.1842,0,-3.1789,-3.1821,-3.186,-3.187,-3.1885,-3.1928,-3.1902,-3.1921,-3.1897,-3.1884,-3.1933,-3.1928,-3.1946,-3.1959,-3.1934,-3.2019,-3.2001,-3.1963,-3.1903,-3.2002,-3.2038,-3.2053,-3.1852,-3.185,-3.1848,-3.1847,0,0,-3.1944,-3.194,-3.1954,-3.196,-3.196,-3.1983,-3.2026,-3.2045,-3.2062,-3.2071,-3.2105,-3.2141,-3.2107,-3.2115,-3.2091,-3.2125,-3.2218,-3.2082,-3.2082,-3.2107,-3.2312,-3.2339,-3.2357,-3.2195,-3.2198,-3.22,-3.2311,0,-3.205,-3.2121,-3.2096,-3.2169,-3.2199,-3.2152,-3.2189,-3.2194,-3.2184,-3.2208,-3.2196,-3.2223,-3.2175,-3.218,-3.2212,-3.22,-3.2258,-3.2192,-3.2226,-3.2227,-3.2225,-3.2376,-3.2404,-3.2509,-3.2325,-3.2328,-3.2329,0,-3.2181,-3.2197,-3.2274,-3.2273,-3.2284,-3.2318,-3.2335,-3.2359,-3.2364,-3.2354,-3.2366,-3.2335,-3.2377,-3.2321,-3.2378,-3.2333,-3.2346,-3.2343,-3.2347,-3.2346,-3.2282,-3.2378,-3.2542,-3.2557,-3.2351,-3.235,-3.2348,0,-3.2286,-3.2327,-3.2379,-3.2385,-3.2384,-3.241,-3.241,-3.2413,-3.2427,-3.2443,-3.2452,-3.2472,-3.2482,-3.2498,-3.2475,-3.2436,-3.2536,-3.2477,-3.2529,-3.2529,-3.2549,-3.2548,-3.2715,-3.2561,-3.2561,-3.2561,-3.256,0,-3.2404,-3.2453,-3.2426,-3.2458,-3.2512,-3.2484,-3.2538,-3.2534,-3.2537,-3.2568,-3.2529,-3.2558,-3.2526,-3.2553,-3.2535,-3.2586,-3.2591,-3.2584,-3.2579,-3.2587,-3.2587,-3.2592,-3.2584,-3.2565,-3.2564,-3.2563,-3.2562,0,-3.2528,-3.2512,-3.2566,-3.2563,-3.2564,-3.2604,-3.2601,-3.2631,-3.262,-3.266,-3.2667,-3.265,-3.268,-3.2659,-3.2688,-3.2676,-3.2743,-3.2728,-3.2741,-3.2736,-3.2789,-3.2784,-3.2964,-3.2986,-3.282,-3.2821,-3.2823,0,-3.2604,-3.2641,-3.2644,-3.2662,-3.2666,-3.2696,-3.2712,-3.2687,-3.2705,-3.2716,-3.2745,-3.2772,-3.2792,-3.2842,-3.2832,-3.2854,-3.2838,-3.29,-3.2841,-3.2849,-3.2838,-3.2835,-3.2839,-3.2911,-3.2913,-3.2915,-3.2916,0,-3.274,-3.2731,-3.2756,-3.2779,-3.28,-3.2816,-3.2829,-3.2847,-3.2822,-3.2844,-3.2876,-3.2892,-3.2924,-3.2951,-3.2971,-3.2971,-3.294,-3.2936,-3.2949,-3.2956,-3.2962,-3.2958,-3.2772,-3.293,-3.2929,-3.2928,-3.2927,-3.2927,-3.284,-3.2872,-3.288,-3.291,-3.2918,-3.2933,-3.2961,-3.2957,-3.2983,-3.3007,-3.2992,-3.3029,-3.3036,-3.306,-3.3065,-3.3094,-3.3068,-3.3087,-3.3092,-3.3096,-3.3103,-3.296,-3.3098,-3.3097,-3.3097,-3.3096,-3.3096,0,-3.2973,-3.2978,-3.3006,-3.3027,-3.3051,-3.3024,-3.3038,-3.3059,-3.3093,-3.3104,-3.3126,-3.3163,-3.3191,-3.3185,-3.321,-3.3234,-3.3221,-3.3242,-3.3238,-3.3239,-3.3125,-3.3111,-3.3253,-3.3252,-3.3252,-3.3252,-3.3252,-3.3252,-3.3045,-3.3097,-3.3091,-3.3149,-3.3152,-3.319,-3.3201,-3.3215,-3.3223,-3.3267,-3.3291,-3.3288,-3.3293,-3.3319,-3.3343,-3.3341,-3.3351,-3.3377,-3.337,-3.3262,-3.3247,-3.3232,-3.3218,-3.338,-3.338,-3.3481,-3.3482,-3.3483]},{"header":{"parameterUnit":"m.s-1","parameterCategory":1,"la1":30.2991,"la2":30.254,"lo1":-89.0895,"lo2":-89.0444,"dy":0.0017,"dx":0.0017,"nx":28,"ny":28,"refTime":"2023-10-28T09:00:00:Z","depth":0,"parameterNumber":3,"parameterNumberName":"V-component_of_WINDS"},"data":[0,0,0,0,0,0,0,0,0,0,0,0,0,0,0,0,0,0,0,0,0,0,0,0,0,0,0,0,0,0,0,0,0,0,0,0,0,0,0,0,0,0,0,0,0,0,0,0,0,0,0,0,0,0,0,0,0,0,0.2465,0.2462,0,0.2162,0.2158,0.2155,0.2019,0.2019,0.202,0.202,0.1705,0.1696,0.1687,0,0,0,0,0,0,0,0,0,0,0,0,0,0.2928,0.292,0.2466,0.2462,0.2458,0.2162,0.2158,0.2154,0.2019,0.2019,0.202,0.202,0.1708,0.1697,0.1687,0,0,0,0,0,0,0,0,0,0,0,0,0,0.2686,0.2917,0.2466,0.2355,0.2342,0.2163,0.2158,0.2153,0.2019,0.2019,0.202,0.202,0.1711,0.1698,0.1685,0.1593,0,0,0.1645,0.1639,0,0,0,0,0,0,0,0,0.27,0.2669,0.2375,0.2362,0.2348,0.2129,0.2205,0.1965,0.2019,0.2141,0.202,0.2021,0.1845,0.1821,0.1763,0.1578,0.1565,0.1644,0.1636,0.163,0.1627,0,0,0,0,0,0,0,0.2717,0.2681,0.2345,0.2371,0.2354,0.232,0.2286,0.2159,0.1994,0.2131,0.212,0.2086,0.1838,0.1776,0.1754,0.156,0.1644,0.1633,0.1625,0.1619,0.1289,0.1288,0,0,0,0,0,0,0.2752,0.2696,0.2355,0.2336,0.2529,0.2311,0.2274,0.2198,0.1995,0.1964,0.2086,0.2081,0.1798,0.177,0.1743,0.1623,0.163,0.1618,0.1611,0.129,0.1289,0.1288,0,0,0,0,0,0,0.2762,0.2723,0.2367,0.2513,0.2465,0.2303,0.222,0.2192,0.213,0.1961,0.1931,0.2053,0.1797,0.1761,0.1632,0.161,0.1612,0.16,0.1291,0.1289,0.1288,0.1382,0,0,0,0,0,0,0.2776,0.2727,0.269,0.2513,0.2458,0.2262,0.2218,0.2186,0.2108,0.2099,0.1922,0.1893,0.1795,0.1653,0.1619,0.1592,0.159,0.1292,0.129,0.1289,0.138,0.1384,0.1387,0,0,0,0,0,0.2793,0.2727,0.2689,0.2648,0.2408,0.2261,0.2229,0.2118,0.2107,0.2068,0.1961,0.1899,0.1619,0.1641,0.1602,0.157,0.1293,0.1291,0.1289,0.1378,0.1383,0.1387,0,0,0,0,0,0,0.2901,0.2701,0.2657,0.2531,0.2415,0.2239,0.2186,0.2127,0.2009,0.2005,0.1872,0.1833,0.1716,0.163,0.1658,0.1472,0.145,0.1441,0.1532,0.1535,0.1539,0.1561,0.1579,0,0,0,0,0,0.2911,0.2809,0.2639,0.2545,0.2489,0.2349,0.228,0.2206,0.2079,0.2028,0.191,0.1789,0.1674,0.16,0.1484,0.1369,0.1329,0.1328,0.1332,0.1336,0.1328,0.1263,0.1261,0.1281,0.1281,0.1281,0,0,0.2929,0.2807,0.275,0.2564,0.2465,0.2362,0.2307,0.22,0.2123,0.2011,0.1883,0.1794,0.1649,0.1528,0.1468,0.1452,0.1315,0.1333,0.1337,0.1327,0.1261,0.1259,0.1258,0.1279,0.128,0.128,0,0,0.2909,0.2807,0.2718,0.2622,0.2474,0.2382,0.2362,0.2195,0.2132,0.2003,0.1918,0.1824,0.1628,0.1529,0.1454,0.1405,0.1344,0.1372,0.1389,0.1328,0.1326,0.1324,0.1308,0.1303,0.1365,0.1365,0.1365,0,0.2949,0.2791,0.268,0.2578,0.25,0.2399,0.2309,0.222,0.2042,0.199,0.1976,0.1731,0.1626,0.1482,0.1471,0.1413,0.1386,0.1389,0.1336,0.1333,0.1329,0.1312,0.1306,0.1369,0.1369,0.1368,0.1368,0,0.2849,0.2742,0.2689,0.2523,0.2438,0.2343,0.2218,0.2146,0.2082,0.1992,0.1863,0.1735,0.1594,0.1555,0.1488,0.1402,0.1397,0.1362,0.1336,0.1333,0.1315,0.1307,0.1375,0.1374,0.1373,0.1372,0,0,0.2882,0.2661,0.2643,0.2568,0.2401,0.2316,0.2219,0.2083,0.2025,0.1907,0.1822,0.1662,0.163,0.1544,0.1467,0.1414,0.1386,0.1384,0.1379,0.1389,0.1284,0.1312,0.1305,0.1346,0.1344,0.1343,0.1297,0,0.2839,0.266,0.256,0.2423,0.2324,0.223,0.2145,0.2034,0.1949,0.1853,0.1758,0.1647,0.1613,0.1561,0.1504,0.1401,0.1362,0.1403,0.1265,0.1261,0.1302,0.1295,0.1322,0.1284,0.1289,0.1287,0.1286,0,0.2762,0.2651,0.2505,0.2354,0.2309,0.2234,0.2104,0.2014,0.1887,0.1829,0.1738,0.1663,0.1557,0.1544,0.1398,0.1428,0.1366,0.1308,0.1304,0.1285,0.1272,0.1276,0.1269,0.1264,0.1274,0.1275,0.1276,0,0.2802,0.2615,0.2504,0.2443,0.2264,0.2215,0.2138,0.2012,0.1939,0.1826,0.1777,0.1653,0.1584,0.149,0.1384,0.1384,0.1249,0.1226,0.1198,0.1201,0.1171,0.1174,0.1154,0.1134,0.1134,0.1135,0.1135,0,0.2763,0.2678,0.2521,0.2452,0.2355,0.2242,0.2149,0.2064,0.1955,0.1869,0.178,0.1701,0.1567,0.1472,0.1389,0.1281,0.1251,0.1201,0.118,0.1208,0.1215,0.1164,0.1163,0.1133,0.1133,0.1134,0.1134,0,0.2789,0.268,0.2554,0.2397,0.2356,0.2292,0.2157,0.2088,0.2002,0.1895,0.1863,0.1726,0.1611,0.1497,0.134,0.1285,0.1178,0.115,0.1222,0.1209,0.1188,0.1192,0.1133,0.112,0.1112,0.1112,0.1112,0,0.277,0.2703,0.2541,0.2479,0.2405,0.2305,0.2231,0.2119,0.2046,0.1901,0.185,0.1729,0.1625,0.1445,0.1332,0.1213,0.118,0.1169,0.1161,0.1194,0.118,0.1185,0.1178,0.1171,0.1172,0.1172,0.1173,0,0.2748,0.27,0.2598,0.2479,0.2395,0.2295,0.2191,0.2145,0.2014,0.1937,0.1819,0.174,0.1583,0.1464,0.1334,0.1253,0.1191,0.1177,0.1164,0.1191,0.1236,0.1212,0.123,0.1177,0.1177,0.1177,0.1176,0.1176,0.275,0.2688,0.2566,0.2457,0.2369,0.2276,0.2205,0.2112,0.2013,0.1878,0.1819,0.1701,0.158,0.1399,0.1321,0.1228,0.1211,0.1193,0.1187,0.1184,0.1191,0.1253,0.1203,0.1203,0.1203,0.1202,0.1202,0,0.2724,0.2643,0.2544,0.2405,0.2321,0.2274,0.2159,0.2091,0.1989,0.1883,0.1785,0.1652,0.1538,0.1419,0.1298,0.1247,0.1215,0.1219,0.122,0.1203,0.1212,0.1235,0.1246,0.1246,0.1246,0.1246,0.1246,0.1246,0.27,0.2593,0.2532,0.2381,0.23,0.2186,0.2125,0.204,0.1955,0.1812,0.1718,0.1642,0.1531,0.1403,0.1297,0.1265,0.1224,0.1235,0.1195,0.1205,0.1202,0.1199,0.122,0.1228,0.1228,0.1194,0.1194,0.1193]}]]